Aérodrome :
LOGIN :

S'inscrire | Disclaimer

   EN    FR    IT 

 










Légende :    VFR   VFR Marginal   IFR   IFR Intensif   IFR Très Intensif
Visi : 
Plafond : 
>= 8 km
>= 3000ft
5 à 8 km
1000 à 3000 ft
1500m à 5 km
500 à 1000 ft
800 à 1500m
200 à 500 ft
< 800m
< 200 ft
Symboles :   Orages  Brouillard  Fortes neiges  Fortes précipitations  Vent > 20 kt
SIGMETs :   Divers  Orages  Givrage  Turbulence  Onde Orograph.  Cendres Volcan.






- Altitude de l'aérodrome : 75 ft
- Code IATA : MRH


EGYM - RAF Marham

DERNIER METAR :
  • 192050Z AUTO 07007KT 9999 FEW018/// BKN021/// 12/11 Q1012 RERA

METARs EXPIRÉS :
  • 191950Z AUTO 06008KT 9999 OVC027/// 13/11 Q1012
  • 191850Z AUTO 07009KT 9999 BKN024/// 13/11 Q1013

TAF TAF EGYM
Valide du 19 à 18h jusqu'au 20 à 03h UTC


191632Z 1918/2003 08010KT 9999 BKN020
TEMPO 1918/1921 7000 -DZ BKN010
BECMG 1921/1923 7000 -RA BKN008 OVC020
TEMPO 2000/2003 4000 RA SCT005 OVC010
PROB40
TEMPO 2002/2003 2000 RADZ BR SCT004 OVC006



MET'MAP, la Météo Aéronautique d'un coup d'oeil ! - Copyright ORBIFLY Décembre 2007 - Disclaimer

ORBIFLY MET'MAP TEAM :

Programmation & Développement : Alexandra Zaïnal
Sur une idée originale de : Baudouin d'Aumeries
Assistance à la programmation : Marc-Olivier Méhu
Soutien technique & logistique : Manuel Goepfert

Contact : metmap@orbifly.com




SOURCES & CREDITS :

   NOAA